Preview of NWS' New Version of Forecast
This preview is not operational and should not be used for support decisions.

Regional Weather Roundup (RWR)

Issued by National Weather Service (NWS)

                            
000
ASUS45 KBOI 250410
RWRID 

IDAHO REGIONAL WEATHER ROUNDUP
NATIONAL WEATHER SERVICE BOISE ID
1000 PM MDT MON JUN 24 2019

NOTE: "FAIR" INDICATES FEW OR NO CLOUDS BELOW 12000 FEET
WITH NO SIGNIFICANT WEATHER AND/OR OBSTRUCTIONS TO VISIBILITY

IDZ012-014-250500-
SOUTHWEST IDAHO

  
CITY           SKY/WX    TMP DP  RH WIND       PRES   REMARKS
BOISE          PTCLDY    73  37  27 CALM      29.82S                  
CALDWELL       PTCLDY    69  44  40 CALM      29.81S                  
MOUNTAIN HOME  CLEAR     72  37  27 N7        29.83R                  
$$

IDZ016-017-250500-
SOUTHCENTRAL IDAHO

  
CITY           SKY/WX    TMP DP  RH WIND       PRES   REMARKS
BURLEY         MOCLDY    63  44  50 CALM      29.87S                  
JEROME         MOCLDY    63  42  46 CALM      29.88S                  
TWIN FALLS     MOCLDY    60  43  53 CALM      29.88F                  
$$

IDZ019>023-250500-
SOUTHEAST IDAHO

  
CITY           SKY/WX    TMP DP  RH WIND       PRES   REMARKS
IDAHO FALLS    CLOUDY    66  32  28 S15       29.90S                  
POCATELLO      MOCLDY    62  37  39 SW7       29.91S                  
REXBURG        MOCLDY    62  33  33 S7        29.89R                  
$$

IDZ006-010-011-018-031-032-250500-
CENTRAL IDAHO MOUNTAINS

  
CITY           SKY/WX    TMP DP  RH WIND       PRES   REMARKS
MCCALL         CLEAR     54  36  50 NE3       29.92F                  
HAILEY         PTCLDY    57  37  47 NW6       29.95R                  
STANLEY          N/A     49  32  52 SW5       30.01S                  
SALMON         MOCLDY    63  36  36 N10       29.88R                  
CHALLIS        CLEAR     62  25  24 SW8       29.93R                  
$$

IDZ002-004-006-007-026-250500-
NORTHERN IDAHO

  
CITY           SKY/WX    TMP DP  RH WIND       PRES   REMARKS
LEWISTON       PTCLDY    69  36  29 E6        29.84S                  
LOWELL           N/A     58  50  75 N3        29.86R                  
COEUR D'ALENE  PTCLDY    59  41  51 S5        29.88S                  
MULLAN PASS    PTCLDY    46  30  53 W6        29.98S                  
$$